Location: Unspecified
(49.2170°N, 0.0000°E)
Time: 01:03:23
(UTC+00:00)

A-11 Canister half - Pass Details

Date: 17 June 2019
Orbit: 1527 x 1682 km, 47.3° (Epoch: 13 October)

Event Time Altitude Azimuth Distance (km) Brightness Sun altitude
Rises 12:50:48 0° 289° (WNW) 4,687 11.6 62.4°
Reaches altitude 10° 12:54:25 10° 278° (W) 3,709 11.3 62.1°
Maximum altitude 13:01:44 27° 225° (SW) 2,647 11.3 61.5°
Drops below altitude 10° 13:09:11 10° 173° (S) 3,769 11.5 60.9°
Sets 13:12:55 0° 162° (SSE) 4,774 11.8 60.5°
